This is the latest recevied weather packets stored in our database for station/object EA1IDU-12. If no packets are shown the sender has not sent any weather packets the latest 10 day(s).
| Time | Temp. | Humidity | Pressure | Rain* | Wind** | Luminosity | Snow |
|---|---|---|---|---|---|---|---|
| 1788314114 | 11.67° C | 68% | 1031.4 hPa | - | - | - | - |
| 1788313214 | 11.67° C | 68% | 1031.4 hPa | - | - | - | - |
| 1788312314 | 12.22° C | 67% | 1031.4 hPa | - | - | - | - |
| 1788311413 | 12.22° C | 68% | 1031.6 hPa | - | - | - | - |
| 1788310513 | 12.78° C | 67% | 1031.6 hPa | - | - | - | - |
| 1788309613 | 13.33° C | 66% | 1031.5 hPa | - | - | - | - |
| 1788308713 | 13.33° C | 66% | 1031.4 hPa | - | - | - | - |
| 1788307813 | 13.33° C | 65% | 1031.4 hPa | - | - | - | - |
| 1788306913 | 12.78° C | 65% | 1031.4 hPa | - | - | - | - |
| 1788306012 | 13.33° C | 65% | 1031.3 hPa | - | - | - | - |
| 1788305112 | 13.33° C | 64% | 1031.3 hPa | - | - | - | - |
| 1788304212 | 13.33° C | 64% | 1031.3 hPa | - | - | - | - |
| 1788303312 | 13.89° C | 64% | 1031.3 hPa | - | - | - | - |
| 1788302412 | 14.44° C | 64% | 1031.3 hPa | - | - | - | - |
| 1788301512 | 14.44° C | 63% | 1031.4 hPa | - | - | - | - |
| 1788300611 | 15° C | 63% | 1031.5 hPa | - | - | - | - |
| 1788299711 | 15.56° C | 62% | 1031.4 hPa | - | - | - | - |
| 1788298811 | 15.56° C | 62% | 1031.3 hPa | - | - | - | - |
| 1788297911 | 16.11° C | 61% | 1031.2 hPa | - | - | - | - |
| 1788297011 | 16.11° C | 61% | 1031.2 hPa | - | - | - | - |
| 1788296111 | 16.67° C | 60% | 1031.2 hPa | - | - | - | - |
| 1788295210 | 17.22° C | 59% | 1031.2 hPa | - | - | - | - |
| 1788294310 | 17.78° C | 57% | 1031 hPa | - | - | - | - |
| 1788293410 | 17.78° C | 56% | 1030.7 hPa | - | - | - | - |
| 1788292510 | 18.33° C | 54% | 1030.6 hPa | - | - | - | - |
* Rain since midnight (hover to see other rain measurements)
** Current wind speed in m/s (hover to see current wind gust speed)